Time,TemperatureF,DewpointF,PressureIn,WindDirection,WindDirectionDegrees,WindSpeedMPH,WindSpeedGustMPH,Humidity,HourlyPrecipIn,Conditions,Clouds,dailyrainin,SoftwareType,DateUTC
2013-11-28 00:00:00,29.4,27.4,29.38,NNE,25,1.0,12.0,92,0.00,,,0.00,Wunderground PWS Mod,2013-11-28 05:00:00,
2013-11-28 00:05:00,29.4,27.4,29.38,NW,304,1.0,5.0,92,0.00,,,0.00,Wunderground PWS Mod,2013-11-28 05:05:00,
2013-11-28 00:10:00,29.3,27.0,29.38,West,273,2.0,10.0,91,0.00,,,0.00,Wunderground PWS Mod,2013-11-28 05:10:00,
2013-11-28 00:15:00,29.1,26.5,29.40,WSW,246,2.0,5.0,90,0.00,,,0.00,Wunderground PWS Mod,2013-11-28 05:15:00,
2013-11-28 00:20:00,29.0,26.2,29.40,WNW,302,2.0,5.0,89,0.00,,,0.00,Wunderground PWS Mod,2013-11-28 05:20:00,
2013-11-28 00:25:00,28.8,26.0,29.40,NNW,345,3.0,5.0,89,0.00,,,0.00,Wunderground PWS Mod,2013-11-28 05:25:00,
2013-11-28 00:30:00,28.7,25.9,29.42,West,264,2.0,5.0,89,0.00,,,0.00,Wunderground PWS Mod,2013-11-28 05:30:00,
2013-11-28 00:35:00,28.5,25.4,29.42,WSW,244,3.0,10.0,88,0.00,,,0.00,Wunderground PWS Mod,2013-11-28 05:35:00,
2013-11-28 00:40:00,28.4,25.6,29.42,WNW,289,4.0,10.0,89,0.00,,,0.00,Wunderground PWS Mod,2013-11-28 05:40:00,
2013-11-28 00:45:00,28.2,25.4,29.43,WSW,246,2.0,10.0,89,0.00,,,0.00,Wunderground PWS Mod,2013-11-28 05:45:00,
2013-11-28 00:50:00,28.1,25.5,29.43,WSW,242,1.0,10.0,90,0.00,,,0.00,Wunderground PWS Mod,2013-11-28 05:50:00,
2013-11-28 00:55:00,28.1,25.8,29.43,WSW,239,1.0,10.0,91,0.00,,,0.00,Wunderground PWS Mod,2013-11-28 05:55:00,
2013-11-28 01:00:00,27.9,25.6,29.45,WSW,252,1.0,10.0,91,0.00,,,0.00,Wunderground PWS Mod,2013-11-28 06:00:00,
2013-11-28 01:05:00,27.9,25.3,29.45,South,190,3.0,11.0,90,0.00,,,0.00,Wunderground PWS Mod,2013-11-28 06:05:00,
2013-11-28 01:10:00,27.8,25.2,29.45,WSW,252,5.0,11.0,90,0.00,,,0.00,Wunderground PWS Mod,2013-11-28 06:10:00,
2013-11-28 01:15:00,27.5,23.9,29.46,SW,224,6.0,11.0,86,0.00,,,0.00,Wunderground PWS Mod,2013-11-28 06:15:00,
2013-11-28 01:20:00,27.3,23.7,29.46,WSW,252,6.0,11.0,86,0.00,,,0.00,Wunderground PWS Mod,2013-11-28 06:20:00,
2013-11-28 01:25:00,27.2,23.3,29.46,SW,223,5.0,11.0,85,0.00,,,0.00,Wunderground PWS Mod,2013-11-28 06:25:00,
2013-11-28 01:30:00,27.0,23.1,29.47,SW,215,4.0,11.0,85,0.00,,,0.00,Wunderground PWS Mod,2013-11-28 06:30:00,
2013-11-28 01:35:00,26.7,22.8,29.47,SSW,195,4.0,16.0,85,0.00,,,0.00,Wunderground PWS Mod,2013-11-28 06:35:00,
2013-11-28 01:40:00,26.7,22.8,29.47,WSW,252,6.0,16.0,85,0.00,,,0.00,Wunderground PWS Mod,2013-11-28 06:40:00,
2013-11-28 01:45:00,26.4,22.5,29.49,WSW,248,5.0,16.0,85,0.00,,,0.00,Wunderground PWS Mod,2013-11-28 06:45:00,
2013-11-28 01:50:00,26.4,23.1,29.49,WSW,255,4.0,16.0,87,0.00,,,0.00,Wunderground PWS Mod,2013-11-28 06:50:00,
2013-11-28 01:55:00,26.0,23.2,29.49,SSW,195,4.0,16.0,89,0.00,,,0.00,Wunderground PWS Mod,2013-11-28 06:55:00,
2013-11-28 02:00:00,25.4,22.9,29.51,South,181,4.0,16.0,90,0.00,,,0.00,Wunderground PWS Mod,2013-11-28 07:00:00,
2013-11-28 02:05:00,24.8,22.0,29.51,SSW,207,4.0,14.0,89,0.00,,,0.00,Wunderground PWS Mod,2013-11-28 07:05:00,
2013-11-28 02:10:00,24.2,20.9,29.51,South,183,5.0,14.0,87,0.00,,,0.00,Wunderground PWS Mod,2013-11-28 07:10:00,
2013-11-28 02:15:00,23.9,20.6,29.52,West,265,5.0,14.0,87,0.00,,,0.00,Wunderground PWS Mod,2013-11-28 07:15:00,
2013-11-28 02:20:00,23.8,20.5,29.52,WSW,239,5.0,14.0,87,0.00,,,0.00,Wunderground PWS Mod,2013-11-28 07:20:00,
2013-11-28 02:25:00,23.6,20.0,29.52,SW,227,6.0,14.0,86,0.00,,,0.00,Wunderground PWS Mod,2013-11-28 07:25:00,
2013-11-28 02:30:00,23.3,19.7,29.53,SSW,213,6.0,14.0,86,0.00,,,0.00,Wunderground PWS Mod,2013-11-28 07:30:00,
2013-11-28 02:35:00,23.2,19.9,29.53,SW,234,5.0,18.0,87,0.00,,,0.00,Wunderground PWS Mod,2013-11-28 07:35:00,
2013-11-28 02:40:00,23.0,19.4,29.53,SSW,201,6.0,18.0,86,0.00,,,0.00,Wunderground PWS Mod,2013-11-28 07:40:00,
2013-11-28 02:45:00,22.9,18.8,29.55,WSW,246,7.0,18.0,84,0.00,,,0.00,Wunderground PWS Mod,2013-11-28 07:45:00,
2013-11-28 02:50:00,22.9,18.8,29.55,SW,217,6.0,18.0,84,0.00,,,0.00,Wunderground PWS Mod,2013-11-28 07:50:00,
2013-11-28 02:55:00,22.9,19.1,29.55,SW,232,5.0,18.0,85,0.00,,,0.00,Wunderground PWS Mod,2013-11-28 07:55:00,
2013-11-28 03:00:00,22.7,18.6,29.56,West,279,4.0,18.0,84,0.00,,,0.00,Wunderground PWS Mod,2013-11-28 08:00:00,
2013-11-28 03:05:00,22.7,18.9,29.56,SSW,212,4.0,15.0,85,0.00,,,0.00,Wunderground PWS Mod,2013-11-28 08:05:00,
2013-11-28 03:10:00,22.5,18.7,29.56,SSW,198,6.0,15.0,85,0.00,,,0.00,Wunderground PWS Mod,2013-11-28 08:10:00,
2013-11-28 03:15:00,22.4,18.6,29.57,SW,232,7.0,15.0,85,0.00,,,0.00,Wunderground PWS Mod,2013-11-28 08:15:00,
2013-11-28 03:20:00,22.2,18.4,29.57,SW,219,8.0,15.0,85,0.00,,,0.00,Wunderground PWS Mod,2013-11-28 08:20:00,
2013-11-28 03:25:00,22.1,18.0,29.57,SW,223,8.0,15.0,84,0.00,,,0.00,Wunderground PWS Mod,2013-11-28 08:25:00,
2013-11-28 03:30:00,21.9,17.8,29.58,SW,217,6.0,15.0,84,0.00,,,0.00,Wunderground PWS Mod,2013-11-28 08:30:00,
2013-11-28 03:35:00,21.9,18.1,29.58,SSW,205,4.0,18.0,85,0.00,,,0.00,Wunderground PWS Mod,2013-11-28 08:35:00,
2013-11-28 03:40:00,21.8,17.4,29.58,West,261,5.0,18.0,83,0.00,,,0.00,Wunderground PWS Mod,2013-11-28 08:40:00,
2013-11-28 03:45:00,21.6,16.7,29.60,SW,228,7.0,18.0,81,0.00,,,0.00,Wunderground PWS Mod,2013-11-28 08:45:00,
2013-11-28 03:50:00,21.6,17.2,29.60,SSW,208,7.0,18.0,83,0.00,,,0.00,Wunderground PWS Mod,2013-11-28 08:50:00,
2013-11-28 03:55:00,21.4,16.8,29.60,South,185,5.0,18.0,82,0.00,,,0.00,Wunderground PWS Mod,2013-11-28 08:55:00,
2013-11-28 04:00:00,21.3,16.9,29.61,SSW,207,6.0,18.0,83,0.00,,,0.00,Wunderground PWS Mod,2013-11-28 09:00:00,
2013-11-28 04:05:00,21.3,16.9,29.61,SW,236,5.0,15.0,83,0.00,,,0.00,Wunderground PWS Mod,2013-11-28 09:05:00,
2013-11-28 04:10:00,21.1,17.0,29.61,South,171,4.0,15.0,84,0.00,,,0.00,Wunderground PWS Mod,2013-11-28 09:10:00,
2013-11-28 04:15:00,21.0,16.9,29.63,South,190,5.0,15.0,84,0.00,,,0.00,Wunderground PWS Mod,2013-11-28 09:15:00,
2013-11-28 04:20:00,21.0,16.9,29.63,SSW,198,6.0,15.0,84,0.00,,,0.00,Wunderground PWS Mod,2013-11-28 09:20:00,
2013-11-28 04:25:00,20.8,16.7,29.63,SSW,200,7.0,15.0,84,0.00,,,0.00,Wunderground PWS Mod,2013-11-28 09:25:00,
2013-11-28 04:30:00,20.6,16.5,29.64,SW,216,7.0,15.0,84,0.00,,,0.00,Wunderground PWS Mod,2013-11-28 09:30:00,
2013-11-28 04:35:00,20.6,16.8,29.64,SSW,202,6.0,17.0,85,0.00,,,0.00,Wunderground PWS Mod,2013-11-28 09:35:00,
2013-11-28 04:40:00,20.5,17.0,29.64,WSW,237,6.0,17.0,86,0.00,,,0.00,Wunderground PWS Mod,2013-11-28 09:40:00,
2013-11-28 04:45:00,20.5,16.7,29.65,South,188,5.0,17.0,85,0.00,,,0.00,Wunderground PWS Mod,2013-11-28 09:45:00,
2013-11-28 04:50:00,20.3,16.8,29.65,WSW,250,5.0,17.0,86,0.00,,,0.00,Wunderground PWS Mod,2013-11-28 09:50:00,
2013-11-28 04:55:00,20.3,16.8,29.65,SSW,212,5.0,17.0,86,0.00,,,0.00,Wunderground PWS Mod,2013-11-28 09:55:00,
2013-11-28 05:00:00,20.3,17.3,29.67,SSW,200,6.0,17.0,88,0.00,,,0.00,Wunderground PWS Mod,2013-11-28 10:00:00,
2013-11-28 05:05:00,20.2,17.0,29.67,SW,217,6.0,16.0,87,0.00,,,0.00,Wunderground PWS Mod,2013-11-28 10:05:00,
2013-11-28 05:10:00,20.2,16.7,29.67,SW,221,5.0,16.0,86,0.00,,,0.00,Wunderground PWS Mod,2013-11-28 10:10:00,
2013-11-28 05:15:00,20.0,16.5,29.68,SW,225,4.0,16.0,86,0.00,,,0.00,Wunderground PWS Mod,2013-11-28 10:15:00,
2013-11-28 05:20:00,20.0,16.8,29.68,SW,227,3.0,16.0,87,0.00,,,0.00,Wunderground PWS Mod,2013-11-28 10:20:00,
2013-11-28 05:25:00,19.9,16.7,29.68,SW,225,3.0,16.0,87,0.00,,,0.00,Wunderground PWS Mod,2013-11-28 10:25:00,
2013-11-28 05:30:00,19.9,16.7,29.70,SW,223,3.0,16.0,87,0.00,,,0.00,Wunderground PWS Mod,2013-11-28 10:30:00,
2013-11-28 05:35:00,19.9,15.6,29.70,West,259,5.0,13.0,83,0.00,,,0.00,Wunderground PWS Mod,2013-11-28 10:35:00,
2013-11-28 05:40:00,19.9,15.8,29.70,SSW,211,5.0,13.0,84,0.00,,,0.00,Wunderground PWS Mod,2013-11-28 10:40:00,
2013-11-28 05:45:00,19.9,15.8,29.72,WSW,250,4.0,13.0,84,0.00,,,0.00,Wunderground PWS Mod,2013-11-28 10:45:00,
2013-11-28 05:50:00,19.9,16.1,29.72,WSW,253,3.0,13.0,85,0.00,,,0.00,Wunderground PWS Mod,2013-11-28 10:50:00,
2013-11-28 05:55:00,19.7,16.2,29.72,West,262,3.0,13.0,86,0.00,,,0.00,Wunderground PWS Mod,2013-11-28 10:55:00,
2013-11-28 06:00:00,19.5,16.0,29.75,WSW,254,3.0,13.0,86,0.00,,,0.00,Wunderground PWS Mod,2013-11-28 11:00:00,
2013-11-28 06:05:00,19.2,16.0,29.75,WSW,254,2.0,13.0,87,0.00,,,0.00,Wunderground PWS Mod,2013-11-28 11:05:00,
2013-11-28 06:10:00,19.1,16.1,29.75,West,265,2.0,13.0,88,0.00,,,0.00,Wunderground PWS Mod,2013-11-28 11:10:00,
2013-11-28 06:15:00,19.1,16.1,29.77,WSW,250,3.0,13.0,88,0.00,,,0.00,Wunderground PWS Mod,2013-11-28 11:15:00,
2013-11-28 06:20:00,18.9,15.7,29.77,WSW,241,3.0,13.0,87,0.00,,,0.00,Wunderground PWS Mod,2013-11-28 11:20:00,
2013-11-28 06:25:00,18.8,15.6,29.77,SSW,213,3.0,13.0,87,0.00,,,0.00,Wunderground PWS Mod,2013-11-28 11:25:00,
2013-11-28 06:30:00,18.6,15.1,29.79,SW,232,3.0,13.0,86,0.00,,,0.00,Wunderground PWS Mod,2013-11-28 11:30:00,
2013-11-28 06:35:00,18.1,13.8,29.79,SSW,195,5.0,10.0,83,0.00,,,0.00,Wunderground PWS Mod,2013-11-28 11:35:00,
2013-11-28 06:40:00,18.1,13.8,29.79,SSE,165,7.0,10.0,83,0.00,,,0.00,Wunderground PWS Mod,2013-11-28 11:40:00,
2013-11-28 06:45:00,18.0,13.4,29.80,SW,234,6.0,10.0,82,0.00,,,0.00,Wunderground PWS Mod,2013-11-28 11:45:00,
2013-11-28 06:50:00,17.8,13.2,29.80,SSW,200,5.0,10.0,82,0.00,,,0.00,Wunderground PWS Mod,2013-11-28 11:50:00,
2013-11-28 06:55:00,17.7,13.1,29.80,South,170,3.0,10.0,82,0.00,,,0.00,Wunderground PWS Mod,2013-11-28 11:55:00,
2013-11-28 07:00:00,17.7,13.1,29.81,SSE,153,3.0,10.0,82,0.00,,,0.00,Wunderground PWS Mod,2013-11-28 12:00:00,
2013-11-28 07:05:00,17.5,12.7,29.81,SSW,192,4.0,16.0,81,0.00,,,0.00,Wunderground PWS Mod,2013-11-28 12:05:00,
2013-11-28 07:10:00,17.3,12.5,29.81,SSW,201,5.0,16.0,81,0.00,,,0.00,Wunderground PWS Mod,2013-11-28 12:10:00,
2013-11-28 07:15:00,17.3,12.5,29.83,SSW,200,5.0,16.0,81,0.00,,,0.00,Wunderground PWS Mod,2013-11-28 12:15:00,
2013-11-28 07:20:00,17.2,12.4,29.83,SSW,213,4.0,16.0,81,0.00,,,0.00,Wunderground PWS Mod,2013-11-28 12:20:00,
2013-11-28 07:25:00,17.0,12.5,29.83,South,179,4.0,16.0,82,0.00,,,0.00,Wunderground PWS Mod,2013-11-28 12:25:00,
2013-11-28 07:30:00,16.9,12.4,29.84,SSW,197,4.0,16.0,82,0.00,,,0.00,Wunderground PWS Mod,2013-11-28 12:30:00,
2013-11-28 07:35:00,16.9,12.4,29.84,SSW,197,5.0,14.0,82,0.00,,,0.00,Wunderground PWS Mod,2013-11-28 12:35:00,
2013-11-28 07:40:00,16.7,11.9,29.84,WSW,251,5.0,14.0,81,0.00,,,0.00,Wunderground PWS Mod,2013-11-28 12:40:00,
2013-11-28 07:45:00,16.5,11.4,29.86,SSW,207,6.0,14.0,80,0.00,,,0.00,Wunderground PWS Mod,2013-11-28 12:45:00,
2013-11-28 07:50:00,16.4,11.6,29.86,SSW,196,6.0,14.0,81,0.00,,,0.00,Wunderground PWS Mod,2013-11-28 12:50:00,
2013-11-28 07:55:00,16.2,11.4,29.86,SSW,200,5.0,14.0,81,0.00,,,0.00,Wunderground PWS Mod,2013-11-28 12:55:00,
2013-11-28 08:00:00,16.2,11.1,29.87,SSW,195,5.0,14.0,80,0.00,,,0.00,Wunderground PWS Mod,2013-11-28 13:00:00,
2013-11-28 08:05:00,16.2,11.1,29.87,SSW,213,5.0,17.0,80,0.00,,,0.00,Wunderground PWS Mod,2013-11-28 13:05:00,
2013-11-28 08:10:00,16.2,10.5,29.87,SW,221,5.0,17.0,78,0.00,,,0.00,Wunderground PWS Mod,2013-11-28 13:10:00,
2013-11-28 08:15:00,16.2,10.5,29.89,SE,130,4.0,17.0,78,0.00,,,0.00,Wunderground PWS Mod,2013-11-28 13:15:00,
2013-11-28 08:20:00,16.2,10.5,29.89,SSW,201,3.0,17.0,78,0.00,,,0.00,Wunderground PWS Mod,2013-11-28 13:20:00,
2013-11-28 08:25:00,16.2,10.5,29.89,WNW,290,2.0,17.0,78,0.00,,,0.00,Wunderground PWS Mod,2013-11-28 13:25:00,
2013-11-28 08:30:00,16.1,9.9,29.91,NW,305,3.0,17.0,76,0.00,,,0.00,Wunderground PWS Mod,2013-11-28 13:30:00,
2013-11-28 08:35:00,16.2,10.0,29.91,WNW,284,3.0,13.0,76,0.00,,,0.00,Wunderground PWS Mod,2013-11-28 13:35:00,
2013-11-28 08:40:00,16.2,10.0,29.91,West,281,2.0,13.0,76,0.00,,,0.00,Wunderground PWS Mod,2013-11-28 13:40:00,
2013-11-28 08:45:00,16.2,9.4,29.93,WNW,294,4.0,13.0,74,0.00,,,0.00,Wunderground PWS Mod,2013-11-28 13:45:00,
2013-11-28 08:50:00,16.2,9.7,29.93,SW,219,5.0,15.0,75,0.00,,,0.00,Wunderground PWS Mod,2013-11-28 13:50:00,
2013-11-28 08:55:00,16.2,9.7,29.93,West,266,5.0,13.0,75,0.00,,,0.00,Wunderground PWS Mod,2013-11-28 13:55:00,
2013-11-28 09:00:00,16.4,9.9,29.94,West,273,4.0,13.0,75,0.00,,,0.00,Wunderground PWS Mod,2013-11-28 14:00:00,
2013-11-28 09:05:00,16.4,9.9,29.94,NW,326,4.0,15.0,75,0.00,,,0.00,Wunderground PWS Mod,2013-11-28 14:05:00,
2013-11-28 09:10:00,16.4,9.6,29.94,SE,133,4.0,15.0,74,0.00,,,0.00,Wunderground PWS Mod,2013-11-28 14:10:00,
2013-11-28 09:15:00,16.4,9.3,29.95,South,175,4.0,15.0,73,0.00,,,0.00,Wunderground PWS Mod,2013-11-28 14:15:00,
2013-11-28 09:20:00,16.5,10.0,29.95,SE,144,4.0,15.0,75,0.00,,,0.00,Wunderground PWS Mod,2013-11-28 14:20:00,
2013-11-28 09:25:00,16.7,9.8,29.95,SSW,204,1.0,15.0,74,0.00,,,0.00,Wunderground PWS Mod,2013-11-28 14:25:00,
2013-11-28 09:30:00,16.5,9.7,29.97,SSW,209,2.0,15.0,74,0.00,,,0.00,Wunderground PWS Mod,2013-11-28 14:30:00,
2013-11-28 09:35:00,16.5,10.3,29.97,WNW,286,4.0,16.0,76,0.00,,,0.00,Wunderground PWS Mod,2013-11-28 14:35:00,
2013-11-28 09:40:00,16.5,10.3,29.97,SSW,207,3.0,16.0,76,0.00,,,0.00,Wunderground PWS Mod,2013-11-28 14:40:00,
2013-11-28 09:45:00,16.5,9.4,29.98,SW,231,3.0,16.0,73,0.00,,,0.00,Wunderground PWS Mod,2013-11-28 14:45:00,
2013-11-28 09:50:00,16.5,9.4,29.98,SW,226,5.0,16.0,73,0.00,,,0.00,Wunderground PWS Mod,2013-11-28 14:50:00,
2013-11-28 09:55:00,16.7,9.5,29.98,WSW,257,5.0,16.0,73,0.00,,,0.00,Wunderground PWS Mod,2013-11-28 14:55:00,
2013-11-28 10:00:00,16.7,9.5,29.97,WSW,250,4.0,16.0,73,0.00,,,0.00,Wunderground PWS Mod,2013-11-28 15:00:00,
2013-11-28 10:05:00,16.9,8.8,29.97,SW,227,7.0,15.0,70,0.00,,,0.00,Wunderground PWS Mod,2013-11-28 15:05:00,
2013-11-28 10:10:00,17.0,9.2,29.97,WSW,240,8.0,15.0,71,0.00,,,0.00,Wunderground PWS Mod,2013-11-28 15:10:00,
2013-11-28 10:15:00,17.3,10.1,29.98,South,184,5.0,15.0,73,0.00,,,0.00,Wunderground PWS Mod,2013-11-28 15:15:00,
2013-11-28 10:20:00,17.5,10.6,29.98,West,265,4.0,15.0,74,0.00,,,0.00,Wunderground PWS Mod,2013-11-28 15:20:00,
2013-11-28 10:25:00,17.7,11.1,29.98,SW,221,3.0,15.0,75,0.00,,,0.00,Wunderground PWS Mod,2013-11-28 15:25:00,
2013-11-28 10:30:00,17.7,11.4,29.98,SW,226,3.0,15.0,76,0.00,,,0.00,Wunderground PWS Mod,2013-11-28 15:30:00,
2013-11-28 10:35:00,17.7,10.8,29.98,SW,224,5.0,18.0,74,0.00,,,0.00,Wunderground PWS Mod,2013-11-28 15:35:00,
2013-11-28 10:40:00,18.0,11.4,29.98,SW,232,7.0,18.0,75,0.00,,,0.00,Wunderground PWS Mod,2013-11-28 15:40:00,
2013-11-28 10:45:00,18.3,11.4,29.99,SSW,205,6.0,18.0,74,0.00,,,0.00,Wunderground PWS Mod,2013-11-28 15:45:00,
2013-11-28 10:50:00,18.6,11.7,29.99,SW,218,6.0,18.0,74,0.00,,,0.00,Wunderground PWS Mod,2013-11-28 15:50:00,
2013-11-28 10:55:00,18.4,10.9,29.99,SW,219,6.0,18.0,72,0.00,,,0.00,Wunderground PWS Mod,2013-11-28 15:55:00,
2013-11-28 11:00:00,18.3,10.5,29.99,South,177,7.0,18.0,71,0.00,,,0.00,Wunderground PWS Mod,2013-11-28 16:00:00,
2013-11-28 11:05:00,18.4,10.6,29.99,West,261,7.0,18.0,71,0.00,,,0.00,Wunderground PWS Mod,2013-11-28 16:05:00,
2013-11-28 11:10:00,19.1,11.6,29.99,West,263,6.0,18.0,72,0.00,,,0.00,Wunderground PWS Mod,2013-11-28 16:10:00,
2013-11-28 11:15:00,19.7,11.5,29.99,SW,236,5.0,18.0,70,0.00,,,0.00,Wunderground PWS Mod,2013-11-28 16:15:00,
2013-11-28 11:20:00,19.9,11.4,29.99,SW,219,5.0,18.0,69,0.00,,,0.00,Wunderground PWS Mod,2013-11-28 16:20:00,
2013-11-28 11:25:00,19.5,10.6,29.99,SSW,205,7.0,18.0,68,0.00,,,0.00,Wunderground PWS Mod,2013-11-28 16:25:00,
2013-11-28 11:30:00,19.4,10.9,29.99,SW,236,8.0,18.0,69,0.00,,,0.00,Wunderground PWS Mod,2013-11-28 16:30:00,
2013-11-28 11:35:00,19.4,10.9,29.99,South,172,9.0,23.0,69,0.00,,,0.00,Wunderground PWS Mod,2013-11-28 16:35:00,
2013-11-28 11:40:00,19.4,11.2,29.99,SW,228,10.0,23.0,70,0.00,,,0.00,Wunderground PWS Mod,2013-11-28 16:40:00,
2013-11-28 11:45:00,19.5,10.6,30.00,SW,234,11.0,23.0,68,0.00,,,0.00,Wunderground PWS Mod,2013-11-28 16:45:00,
2013-11-28 11:50:00,20.0,11.1,30.00,SSW,209,11.0,23.0,68,0.00,,,0.00,Wunderground PWS Mod,2013-11-28 16:50:00,
2013-11-28 11:55:00,19.9,11.0,30.00,SSE,167,10.0,23.0,68,0.00,,,0.00,Wunderground PWS Mod,2013-11-28 16:55:00,
2013-11-28 12:00:00,19.9,11.0,30.01,South,169,10.0,23.0,68,0.00,,,0.00,Wunderground PWS Mod,2013-11-28 17:00:00,
2013-11-28 12:05:00,20.2,11.0,30.01,South,184,8.0,24.0,67,0.00,,,0.00,Wunderground PWS Mod,2013-11-28 17:05:00,
2013-11-28 12:10:00,20.3,10.7,30.01,SW,221,10.0,24.0,66,0.00,,,0.00,Wunderground PWS Mod,2013-11-28 17:10:00,
2013-11-28 12:15:00,20.6,11.4,30.02,SSE,167,11.0,24.0,67,0.00,,,0.00,Wunderground PWS Mod,2013-11-28 17:15:00,
2013-11-28 12:20:00,21.0,11.1,30.02,SSW,192,8.0,24.0,65,0.00,,,0.00,Wunderground PWS Mod,2013-11-28 17:20:00,
2013-11-28 12:25:00,21.0,11.1,30.02,SW,217,8.0,24.0,65,0.00,,,0.00,Wunderground PWS Mod,2013-11-28 17:25:00,
2013-11-28 12:30:00,21.0,10.4,30.03,SW,225,9.0,24.0,63,0.00,,,0.00,Wunderground PWS Mod,2013-11-28 17:30:00,
2013-11-28 12:35:00,21.3,11.0,30.03,SSW,210,9.0,23.0,64,0.00,,,0.00,Wunderground PWS Mod,2013-11-28 17:35:00,
2013-11-28 12:40:00,21.4,10.7,30.03,SSW,202,8.0,23.0,63,0.00,,,0.00,Wunderground PWS Mod,2013-11-28 17:40:00,
2013-11-28 12:45:00,21.4,10.7,30.04,SW,231,9.0,23.0,63,0.00,,,0.00,Wunderground PWS Mod,2013-11-28 17:45:00,
2013-11-28 12:50:00,21.0,10.7,30.04,SW,227,11.0,23.0,64,0.00,,,0.00,Wunderground PWS Mod,2013-11-28 17:50:00,
2013-11-28 12:55:00,21.0,11.1,30.04,WSW,240,10.0,23.0,65,0.00,,,0.00,Wunderground PWS Mod,2013-11-28 17:55:00,
2013-11-28 13:00:00,21.1,11.2,30.04,SW,233,6.0,23.0,65,0.00,,,0.00,Wunderground PWS Mod,2013-11-28 18:00:00,
2013-11-28 13:05:00,21.4,11.5,30.04,SW,214,6.0,23.0,65,0.00,,,0.00,Wunderground PWS Mod,2013-11-28 18:05:00,
2013-11-28 13:10:00,21.8,11.5,30.04,SW,229,6.0,23.0,64,0.00,,,0.00,Wunderground PWS Mod,2013-11-28 18:10:00,
2013-11-28 13:15:00,21.9,11.2,30.04,SSW,209,5.0,23.0,63,0.00,,,0.00,Wunderground PWS Mod,2013-11-28 18:15:00,
2013-11-28 13:20:00,22.1,12.1,30.04,SW,234,6.0,23.0,65,0.00,,,0.00,Wunderground PWS Mod,2013-11-28 18:20:00,
2013-11-28 13:25:00,22.1,11.4,30.04,WSW,238,6.0,23.0,63,0.00,,,0.00,Wunderground PWS Mod,2013-11-28 18:25:00,
2013-11-28 13:35:00,22.4,10.6,30.04,SSW,196,8.0,17.0,60,0.00,,,0.00,Wunderground PWS Mod,2013-11-28 18:35:00,
2013-11-28 13:40:00,22.4,10.2,30.04,SW,220,9.0,17.0,59,0.00,,,0.00,Wunderground PWS Mod,2013-11-28 18:40:00,
2013-11-28 13:43:00,22.4,11.3,30.04,South,184,7.0,23.0,62,0.00,,,0.00,Wunderground PWS Mod,2013-11-28 18:43:00,
2013-11-28 13:45:00,22.4,9.4,30.05,SSW,205,10.0,17.0,57,0.00,,,0.00,Wunderground PWS Mod,2013-11-28 18:45:00,
2013-11-28 13:50:00,22.5,9.9,30.05,SSW,206,10.0,17.0,58,0.00,,,0.00,Wunderground PWS Mod,2013-11-28 18:50:00,
2013-11-28 13:55:00,22.9,9.9,30.05,WSW,238,8.0,17.0,57,0.00,,,0.00,Wunderground PWS Mod,2013-11-28 18:55:00,
2013-11-28 14:00:00,22.9,9.1,30.06,WNW,284,8.0,17.0,55,0.00,,,0.00,Wunderground PWS Mod,2013-11-28 19:00:00,
2013-11-28 14:10:00,23.0,10.4,30.06,SSW,196,8.0,24.0,58,0.00,,,0.00,Wunderground PWS Mod,2013-11-28 19:10:00,
2013-11-28 14:15:00,22.7,8.9,30.07,WSW,248,8.0,24.0,55,0.00,,,0.00,Wunderground PWS Mod,2013-11-28 19:15:00,
2013-11-28 14:18:00,22.9,10.3,30.06,West,259,9.0,24.0,58,0.00,,,0.00,Wunderground PWS Mod,2013-11-28 19:18:00,
2013-11-28 14:20:00,22.5,9.9,30.07,South,176,9.0,24.0,58,0.00,,,0.00,Wunderground PWS Mod,2013-11-28 19:20:00,
2013-11-28 14:25:00,22.2,9.3,30.07,SSE,159,10.0,24.0,57,0.00,,,0.00,Wunderground PWS Mod,2013-11-28 19:25:00,
2013-11-28 14:35:00,22.2,9.7,30.08,South,175,7.0,24.0,58,0.00,,,0.00,Wunderground PWS Mod,2013-11-28 19:35:00,
2013-11-28 14:40:00,21.9,9.7,30.08,SW,221,8.0,24.0,59,0.00,,,0.00,Wunderground PWS Mod,2013-11-28 19:40:00,
2013-11-28 14:43:00,22.2,9.3,30.08,WSW,247,9.0,24.0,57,0.00,,,0.00,Wunderground PWS Mod,2013-11-28 19:43:00,
2013-11-28 14:45:00,21.6,9.1,30.09,West,267,8.0,24.0,58,0.00,,,0.00,Wunderground PWS Mod,2013-11-28 19:45:00,
2013-11-28 14:50:00,21.4,9.3,30.09,SSW,211,6.0,24.0,59,0.00,,,0.00,Wunderground PWS Mod,2013-11-28 19:50:00,
2013-11-28 14:55:00,21.3,8.0,30.09,SSE,157,8.0,24.0,56,0.00,,,0.00,Wunderground PWS Mod,2013-11-28 19:55:00,
2013-11-28 15:00:00,21.1,9.0,30.10,SSW,194,10.0,24.0,59,0.00,,,0.00,Wunderground PWS Mod,2013-11-28 20:00:00,
2013-11-28 15:05:00,21.0,8.5,30.10,SSW,210,8.0,27.0,58,0.00,,,0.00,Wunderground PWS Mod,2013-11-28 20:05:00,
2013-11-28 15:10:00,20.8,8.7,30.10,SSW,209,7.0,27.0,59,0.00,,,0.00,Wunderground PWS Mod,2013-11-28 20:10:00,
2013-11-28 15:15:00,20.6,8.5,30.11,SSW,197,5.0,27.0,59,0.00,,,0.00,Wunderground PWS Mod,2013-11-28 20:15:00,
2013-11-28 15:20:00,20.5,8.4,30.11,SW,234,6.0,27.0,59,0.00,,,0.00,Wunderground PWS Mod,2013-11-28 20:20:00,
2013-11-28 15:25:00,20.3,7.9,30.11,SW,219,6.0,27.0,58,0.00,,,0.00,Wunderground PWS Mod,2013-11-28 20:25:00,
2013-11-28 15:30:00,20.3,7.9,30.12,SW,232,7.0,27.0,58,0.00,,,0.00,Wunderground PWS Mod,2013-11-28 20:30:00,
2013-11-28 15:35:00,20.0,7.6,30.12,South,180,8.0,20.0,58,0.00,,,0.00,Wunderground PWS Mod,2013-11-28 20:35:00,
2013-11-28 15:40:00,19.9,7.9,30.12,SSW,197,8.0,20.0,59,0.00,,,0.00,Wunderground PWS Mod,2013-11-28 20:40:00,
2013-11-28 15:45:00,19.7,7.3,30.14,SW,220,7.0,20.0,58,0.00,,,0.00,Wunderground PWS Mod,2013-11-28 20:45:00,
2013-11-28 15:50:00,19.5,7.5,30.14,WSW,244,7.0,20.0,59,0.00,,,0.00,Wunderground PWS Mod,2013-11-28 20:50:00,
2013-11-28 15:55:00,19.5,7.5,30.14,SSW,202,8.0,20.0,59,0.00,,,0.00,Wunderground PWS Mod,2013-11-28 20:55:00,
2013-11-28 16:00:00,19.4,7.8,30.15,SSW,197,7.0,20.0,60,0.00,,,0.00,Wunderground PWS Mod,2013-11-28 21:00:00,
2013-11-28 16:05:00,19.2,7.9,30.15,SSW,192,4.0,16.0,61,0.00,,,0.00,Wunderground PWS Mod,2013-11-28 21:05:00,
2013-11-28 16:10:00,19.2,7.9,30.15,SSW,211,3.0,16.0,61,0.00,,,0.00,Wunderground PWS Mod,2013-11-28 21:10:00,
2013-11-28 16:15:00,19.1,8.2,30.16,WSW,257,2.0,16.0,62,0.00,,,0.00,Wunderground PWS Mod,2013-11-28 21:15:00,
2013-11-28 16:20:00,18.9,7.3,30.16,WSW,251,2.0,16.0,60,0.00,,,0.00,Wunderground PWS Mod,2013-11-28 21:20:00,
2013-11-28 16:25:00,18.9,7.3,30.16,SW,225,2.0,16.0,60,0.00,,,0.00,Wunderground PWS Mod,2013-11-28 21:25:00,
2013-11-28 16:30:00,18.9,7.7,30.17,South,187,2.0,16.0,61,0.00,,,0.00,Wunderground PWS Mod,2013-11-28 21:30:00,
2013-11-28 16:35:00,18.8,8.6,30.17,WSW,246,1.0,12.0,64,0.00,,,0.00,Wunderground PWS Mod,2013-11-28 21:35:00,
2013-11-28 16:40:00,18.4,7.9,30.17,South,176,1.0,12.0,63,0.00,,,0.00,Wunderground PWS Mod,2013-11-28 21:40:00,
2013-11-28 16:45:00,18.1,8.3,30.18,ESE,119,1.0,12.0,65,0.00,,,0.00,Wunderground PWS Mod,2013-11-28 21:45:00,
2013-11-28 16:50:00,18.1,8.6,30.18,South,184,1.0,12.0,66,0.00,,,0.00,Wunderground PWS Mod,2013-11-28 21:50:00,
2013-11-28 16:55:00,18.0,9.2,30.18,South,184,1.0,12.0,68,0.00,,,0.00,Wunderground PWS Mod,2013-11-28 21:55:00,
2013-11-28 17:00:00,17.5,9.4,30.19,South,184,0.0,12.0,70,0.00,,,0.00,Wunderground PWS Mod,2013-11-28 22:00:00,
2013-11-28 17:05:00,17.0,9.5,30.19,South,184,0.0,4.0,72,0.00,,,0.00,Wunderground PWS Mod,2013-11-28 22:05:00,
2013-11-28 17:10:00,16.7,9.8,30.19,South,184,0.0,4.0,74,0.00,,,0.00,Wunderground PWS Mod,2013-11-28 22:10:00,
2013-11-28 17:15:00,16.2,9.7,30.21,South,184,0.0,4.0,75,0.00,,,0.00,Wunderground PWS Mod,2013-11-28 22:15:00,
2013-11-28 17:20:00,15.9,9.7,30.21,South,184,0.0,4.0,76,0.00,,,0.00,Wunderground PWS Mod,2013-11-28 22:20:00,
2013-11-28 17:25:00,15.6,10.0,30.21,SE,131,1.0,4.0,78,0.00,,,0.00,Wunderground PWS Mod,2013-11-28 22:25:00,
2013-11-28 17:30:00,15.7,9.5,30.22,NNE,28,1.0,4.0,76,0.00,,,0.00,Wunderground PWS Mod,2013-11-28 22:30:00,
2013-11-28 17:35:00,15.6,10.0,30.22,East,79,1.0,4.0,78,0.00,,,0.00,Wunderground PWS Mod,2013-11-28 22:35:00,
2013-11-28 17:40:00,16.1,9.3,30.22,East,79,1.0,4.0,74,0.00,,,0.00,Wunderground PWS Mod,2013-11-28 22:40:00,
2013-11-28 17:45:00,15.9,9.4,30.22,East,79,1.0,4.0,75,0.00,,,0.00,Wunderground PWS Mod,2013-11-28 22:45:00,
2013-11-28 17:50:00,15.7,9.5,30.22,East,94,1.0,4.0,76,0.00,,,0.00,Wunderground PWS Mod,2013-11-28 22:50:00,
2013-11-28 17:55:00,15.6,10.0,30.22,East,94,1.0,4.0,78,0.00,,,0.00,Wunderground PWS Mod,2013-11-28 22:55:00,
2013-11-28 18:00:00,15.4,10.1,30.23,South,170,1.0,4.0,79,0.00,,,0.00,Wunderground PWS Mod,2013-11-28 23:00:00,
2013-11-28 18:05:00,15.2,9.9,30.23,West,259,2.0,4.0,79,0.00,,,0.00,Wunderground PWS Mod,2013-11-28 23:05:00,
2013-11-28 18:10:00,15.1,10.3,30.23,West,259,2.0,4.0,81,0.00,,,0.00,Wunderground PWS Mod,2013-11-28 23:10:00,
2013-11-28 18:15:00,14.8,10.3,30.24,SW,223,2.0,4.0,82,0.00,,,0.00,Wunderground PWS Mod,2013-11-28 23:15:00,
2013-11-28 18:20:00,14.9,9.6,30.24,SW,216,2.0,4.0,79,0.00,,,0.00,Wunderground PWS Mod,2013-11-28 23:20:00,
2013-11-28 18:25:00,14.9,9.8,30.24,South,176,4.0,4.0,80,0.00,,,0.00,Wunderground PWS Mod,2013-11-28 23:25:00,
2013-11-28 18:30:00,14.4,9.9,30.25,SW,220,5.0,7.0,82,0.00,,,0.00,Wunderground PWS Mod,2013-11-28 23:30:00,
2013-11-28 18:35:00,14.0,9.8,30.25,SSW,196,5.0,9.0,83,0.00,,,0.00,Wunderground PWS Mod,2013-11-28 23:35:00,
2013-11-28 18:40:00,14.3,9.8,30.25,SW,230,4.0,9.0,82,0.00,,,0.00,Wunderground PWS Mod,2013-11-28 23:40:00,
2013-11-28 18:45:00,14.8,9.5,30.26,South,180,3.0,9.0,79,0.00,,,0.00,Wunderground PWS Mod,2013-11-28 23:45:00,
2013-11-28 18:50:00,15.1,9.8,30.26,SSE,156,2.0,9.0,79,0.00,,,0.00,Wunderground PWS Mod,2013-11-28 23:50:00,
2013-11-28 18:55:00,14.9,9.8,30.26,SSE,156,1.0,9.0,80,0.00,,,0.00,Wunderground PWS Mod,2013-11-28 23:55:00,
2013-11-28 19:00:00,14.4,9.6,30.27,SSE,156,0.0,9.0,81,0.00,,,0.00,Wunderground PWS Mod,2013-11-29 00:00:00,
2013-11-28 19:05:00,14.1,9.9,30.27,SSE,156,0.0,10.0,83,0.00,,,0.00,Wunderground PWS Mod,2013-11-29 00:05:00,
2013-11-28 19:10:00,14.0,9.8,30.27,SSE,156,0.0,10.0,83,0.00,,,0.00,Wunderground PWS Mod,2013-11-29 00:10:00,
2013-11-28 19:15:00,13.8,9.9,30.28,SSE,156,0.0,10.0,84,0.00,,,0.00,Wunderground PWS Mod,2013-11-29 00:15:00,
2013-11-28 19:20:00,13.6,9.9,30.28,SSE,156,0.0,10.0,85,0.00,,,0.00,Wunderground PWS Mod,2013-11-29 00:20:00,
2013-11-28 19:25:00,13.6,10.2,30.28,SSE,156,0.0,10.0,86,0.00,,,0.00,Wunderground PWS Mod,2013-11-29 00:25:00,
2013-11-28 19:30:00,13.5,10.1,30.28,SSE,156,0.0,10.0,86,0.00,,,0.00,Wunderground PWS Mod,2013-11-29 00:30:00,
2013-11-28 19:35:00,13.5,10.1,30.28,SSE,156,0.0,1.0,86,0.00,,,0.00,Wunderground PWS Mod,2013-11-29 00:35:00,
2013-11-28 19:40:00,13.1,9.7,30.28,SSE,156,0.0,1.0,86,0.00,,,0.00,Wunderground PWS Mod,2013-11-29 00:40:00,
2013-11-28 19:45:00,12.6,9.2,30.29,SSE,156,0.0,1.0,86,0.00,,,0.00,Wunderground PWS Mod,2013-11-29 00:45:00,
2013-11-28 19:50:00,12.3,8.9,30.29,SSE,156,0.0,1.0,86,0.00,,,0.00,Wunderground PWS Mod,2013-11-29 00:50:00,
2013-11-28 19:55:00,12.1,9.0,30.29,SSE,156,0.0,1.0,87,0.00,,,0.00,Wunderground PWS Mod,2013-11-29 00:55:00,
2013-11-28 20:00:00,11.9,8.8,30.29,SSE,156,0.0,1.0,87,0.00,,,0.00,Wunderground PWS Mod,2013-11-29 01:00:00,
2013-11-28 20:05:00,11.9,9.0,30.29,SSE,156,0.0,3.0,88,0.00,,,0.00,Wunderground PWS Mod,2013-11-29 01:05:00,
2013-11-28 20:10:00,11.9,9.0,30.29,SSE,156,0.0,3.0,88,0.00,,,0.00,Wunderground PWS Mod,2013-11-29 01:10:00,
2013-11-28 20:15:00,11.7,8.8,30.30,SSE,156,0.0,3.0,88,0.00,,,0.00,Wunderground PWS Mod,2013-11-29 01:15:00,
2013-11-28 20:20:00,11.6,9.0,30.30,SSE,156,0.0,3.0,89,0.00,,,0.00,Wunderground PWS Mod,2013-11-29 01:20:00,
2013-11-28 20:25:00,11.6,9.0,30.30,SSE,156,0.0,3.0,89,0.00,,,0.00,Wunderground PWS Mod,2013-11-29 01:25:00,
2013-11-28 20:30:00,11.6,9.2,30.30,SSE,156,0.0,3.0,90,0.00,,,0.00,Wunderground PWS Mod,2013-11-29 01:30:00,
2013-11-28 20:35:00,11.6,9.2,30.30,SSE,156,0.0,1.0,90,0.00,,,0.00,Wunderground PWS Mod,2013-11-29 01:35:00,
2013-11-28 20:40:00,11.6,9.2,30.30,SSE,156,0.0,1.0,90,0.00,,,0.00,Wunderground PWS Mod,2013-11-29 01:40:00,
2013-11-28 20:45:00,11.7,9.6,30.31,SSE,156,0.0,1.0,91,0.00,,,0.00,Wunderground PWS Mod,2013-11-29 01:45:00,
2013-11-28 20:50:00,11.6,9.5,30.31,SSE,156,0.0,1.0,91,0.00,,,0.00,Wunderground PWS Mod,2013-11-29 01:50:00,
2013-11-28 20:55:00,11.4,9.3,30.31,SSE,156,0.0,1.0,91,0.00,,,0.00,Wunderground PWS Mod,2013-11-29 01:55:00,
2013-11-28 21:00:00,11.2,9.1,30.31,SSE,156,0.0,1.0,91,0.00,,,0.00,Wunderground PWS Mod,2013-11-29 02:00:00,
2013-11-28 21:05:00,11.1,9.0,30.31,SSE,156,0.0,1.0,91,0.00,,,0.00,Wunderground PWS Mod,2013-11-29 02:05:00,
2013-11-28 21:10:00,11.1,9.0,30.31,SSE,156,0.0,3.0,91,0.00,,,0.00,Wunderground PWS Mod,2013-11-29 02:10:00,
2013-11-28 21:15:00,10.5,8.4,30.31,NNE,17,1.0,1.0,91,0.00,,,0.00,Wunderground PWS Mod,2013-11-29 02:15:00,
2013-11-28 21:20:00,10.4,8.3,30.31,NNE,17,1.0,1.0,91,0.00,,,0.00,Wunderground PWS Mod,2013-11-29 02:20:00,
2013-11-28 21:25:00,10.0,7.9,30.31,NNE,17,0.0,1.0,91,0.00,,,0.00,Wunderground PWS Mod,2013-11-29 02:25:00,
2013-11-28 21:30:00,9.9,7.8,30.31,NNE,17,0.0,1.0,91,0.00,,,0.00,Wunderground PWS Mod,2013-11-29 02:30:00,
2013-11-28 21:35:00,9.7,7.6,30.31,NNE,17,0.0,3.0,91,0.00,,,0.00,Wunderground PWS Mod,2013-11-29 02:35:00,
2013-11-28 21:40:00,9.3,7.0,30.31,NNE,17,1.0,3.0,90,0.00,,,0.00,Wunderground PWS Mod,2013-11-29 02:40:00,
2013-11-28 21:45:00,9.2,6.9,30.32,NNE,17,1.0,3.0,90,0.00,,,0.00,Wunderground PWS Mod,2013-11-29 02:45:00,
2013-11-28 21:50:00,9.2,7.1,30.32,NNE,17,0.0,3.0,91,0.00,,,0.00,Wunderground PWS Mod,2013-11-29 02:50:00,
2013-11-28 21:55:00,9.0,6.9,30.32,NNE,17,0.0,3.0,91,0.00,,,0.00,Wunderground PWS Mod,2013-11-29 02:55:00,
2013-11-28 22:00:00,9.0,6.9,30.32,NNE,17,0.0,3.0,91,0.00,,,0.00,Wunderground PWS Mod,2013-11-29 03:00:00,
2013-11-28 22:05:00,8.8,6.7,30.32,NNE,17,0.0,2.0,91,0.00,,,0.00,Wunderground PWS Mod,2013-11-29 03:05:00,
2013-11-28 22:10:00,8.8,6.7,30.32,NNE,17,0.0,2.0,91,0.00,,,0.00,Wunderground PWS Mod,2013-11-29 03:10:00,
2013-11-28 22:15:00,8.6,6.5,30.33,NNE,17,0.0,2.0,91,0.00,,,0.00,Wunderground PWS Mod,2013-11-29 03:15:00,
2013-11-28 22:20:00,8.4,6.3,30.33,NNE,17,0.0,2.0,91,0.00,,,0.00,Wunderground PWS Mod,2013-11-29 03:20:00,
2013-11-28 22:25:00,8.3,6.0,30.33,NNE,17,0.0,2.0,90,0.00,,,0.00,Wunderground PWS Mod,2013-11-29 03:25:00,
2013-11-28 22:30:00,8.1,5.8,30.33,NNE,17,0.0,2.0,90,0.00,,,0.00,Wunderground PWS Mod,2013-11-29 03:30:00,
2013-11-28 22:35:00,7.9,5.6,30.33,NNE,17,0.0,1.0,90,0.00,,,0.00,Wunderground PWS Mod,2013-11-29 03:35:00,
2013-11-28 22:40:00,7.7,5.4,30.33,NNE,17,0.0,1.0,90,0.00,,,0.00,Wunderground PWS Mod,2013-11-29 03:40:00,
2013-11-28 22:45:00,7.6,5.3,30.33,NNE,17,0.0,1.0,90,0.00,,,0.00,Wunderground PWS Mod,2013-11-29 03:45:00,
2013-11-28 22:50:00,7.4,5.1,30.33,NNE,17,0.0,1.0,90,0.00,,,0.00,Wunderground PWS Mod,2013-11-29 03:50:00,
2013-11-28 22:55:00,7.4,5.1,30.33,NNE,17,0.0,1.0,90,0.00,,,0.00,Wunderground PWS Mod,2013-11-29 03:55:00,
2013-11-28 23:00:00,7.2,4.9,30.34,NNE,17,0.0,1.0,90,0.00,,,0.00,Wunderground PWS Mod,2013-11-29 04:00:00,
2013-11-28 23:05:00,7.0,4.7,30.34,NNE,17,0.0,1.0,90,0.00,,,0.00,Wunderground PWS Mod,2013-11-29 04:05:00,
2013-11-28 23:10:00,7.0,4.7,30.34,NNE,17,0.0,1.0,90,0.00,,,0.00,Wunderground PWS Mod,2013-11-29 04:10:00,
2013-11-28 23:15:00,6.9,4.6,30.34,NNE,17,0.0,1.0,90,0.00,,,0.00,Wunderground PWS Mod,2013-11-29 04:15:00,
2013-11-28 23:20:00,6.9,4.6,30.34,NNE,17,0.0,1.0,90,0.00,,,0.00,Wunderground PWS Mod,2013-11-29 04:20:00,
2013-11-28 23:25:00,6.7,4.4,30.34,NNE,17,0.0,1.0,90,0.00,,,0.00,Wunderground PWS Mod,2013-11-29 04:25:00,
2013-11-28 23:30:00,6.5,4.2,30.34,NNE,17,0.0,1.0,90,0.00,,,0.00,Wunderground PWS Mod,2013-11-29 04:30:00,
2013-11-28 23:35:00,6.3,4.0,30.34,NNE,17,0.0,1.0,90,0.00,,,0.00,Wunderground PWS Mod,2013-11-29 04:35:00,
2013-11-28 23:40:00,6.3,4.0,30.34,NNE,17,0.0,1.0,90,0.00,,,0.00,Wunderground PWS Mod,2013-11-29 04:40:00,
2013-11-28 23:45:00,6.3,4.0,30.35,NNE,17,0.0,1.0,90,0.00,,,0.00,Wunderground PWS Mod,2013-11-29 04:45:00,
2013-11-28 23:50:00,6.1,3.6,30.35,NNE,17,0.0,1.0,89,0.00,,,0.00,Wunderground PWS Mod,2013-11-29 04:50:00,
2013-11-28 23:55:00,6.0,3.7,30.35,NNE,17,0.0,1.0,90,0.00,,,0.00,Wunderground PWS Mod,2013-11-29 04:55:00,